{"data":{"norad_id":48555,"intl_designator":"2021-041C","name":"STARLINK-2145","alt_names":[],"object_type":"PAYLOAD","status":"ACTIVE","operator":null,"country":"US","launch_date":"2021-05-15","launch_site_code":"AFETR","launch_vehicle":null,"mission":null,"orbit_class":"UNKNOWN","rcs_meters":null,"size_class":null,"mass_kg":null,"dimensions":null,"purposes":["comms"],"wikipedia_slug":null,"has_3d_model":false,"image_url":null,"decayed_at":null,"tle_current":{"epoch":"2026-05-25T00:51:31.258080Z","epoch_age_seconds":68039,"freshness":"FRESH","line1":"1 48555U 21041C   26145.03577845  .00001165  00000+0  49295-4 0  9997","line2":"2 48555  53.1596 153.8542 0001140  78.6334 281.4795 15.31704632276646","mean_motion":15.31704632,"eccentricity":0.000114,"inclination_deg":53.1596,"raan_deg":153.8542,"arg_perigee_deg":78.6334,"mean_anomaly_deg":281.4795,"bstar":4.9295e-5,"rev_number":27664,"period_min":94.012903657524,"perigee_km":469.9454171061,"apogee_km":471.50695791285,"semimajor_km":6848.8631875095,"source":"CELESTRAK","updated_at":"2026-05-25T13:38:16.724563Z"}}}